Simultaneous Nadir Overpasses (SNOs) Predictions

Prediction of SNOs between GOES-14 and AQUA Satellite Orbit:

Table of predicted SNOs for the next 14.0 days since TLE Epoch: 4/4/2025
Index Date Time (GOES-14) GOES-14 Lat,Lon AQUA Lat,Lon Distance(km) Time Diff (sec)
1 04/06/2025 09:34:41 0.35,-108.27 -0.49,-104.46 433.73 80
2 04/06/2025 21:51:26 -0.32,-108.27 -0.49,-109.16 100.65 80
3 04/08/2025 21:34:11 -0.34,-108.28 0.50,-104.27 455.89 80
4 04/09/2025 09:50:48 0.30,-108.29 0.42,-108.94 73.73 80
5 04/11/2025 09:33:32 0.32,-108.31 -0.61,-104.06 483.90 80
6 04/11/2025 21:50:16 -0.29,-108.31 -0.36,-108.75 49.93 80
7 04/14/2025 09:49:34 0.26,-108.34 0.28,-108.53 21.31 80
8 04/16/2025 21:51:37 -0.24,-108.35 -0.21,-108.32 4.00 80
